www.pogodaiklimat.ru

Погода и климат >> Архив погоды >> Мексика >> Manzanillo


ПОГОДА в Manzanillo

  • Прогноз погоды в Manzanillo
  • Монитор погоды в Manzanillo
  • Климат города

АРХИВ ПОГОДЫ в Manzanillo

Время (UTC), дата Ветер
(напр.,м/с)
 
Видим.   Явления Облачность Т
(С)
Тd
(С)
f
(%)
Тe
(С)
Тes
(С)
Комфортность P
(гПа)
Po
(гПа)
Тmin
(С)
Tmax
(С)
R
(мм)
R24
(мм)
S
(см)
12 18.09 С 2 6000 м мгла {туман} 5/0 2000 м
[Ac trans Ci fib]
+26.8 +23.8 84 +37 +37 очень
душно
1011.1 1010.7 +26.8 +34.4
15 18.09 СВ 2 7000 м мгла {туман} 8/0
[Ci fib]
+28.7 +23.8 75 +40 +44 очень
душно
1010.8 1010.4
18 18.09 ЮЗ 2 7000 м мгла {туман} 9/1 600 м
[Cu med, cong Ci fib]
+32.1 +24.1 63 +44 +58 опасность
перегрева
1013.2 1012.8 +26.3 +33.4
21 18.09 З 3 6000 м мгла {туман} 6/0 1500 м
[As op]
+31.5 +25.9 72 +47 +53 опасность
перегрева
1009.8 1009.4
00 19.09 З 2 6000 м мгла {туман} 9/1 300 м
[Cu med, cong Cs]
+30.2 +25.0 74 +44 +44 опасность
перегрева
1009.5 1009.1 +26.3 +33.6
03 19.09 З 2 6000 м мгла {туман} 9/0
[Cs]
+29.3 +25.0 78 +42 +42 опасность
перегрева
1010.3 1009.9
06 19.09 СВ 1 6000 м мгла {туман} 10/0
[As op]
+28.3 +25.5 85 +42 +42 опасность
перегрева
1011.2 1010.8 +33.6
09 19.09 С 2 6000 м мгла {туман} ясно +27.1 +24.6 86 +38 +38 очень
душно
1009.8 1009.4
12 19.09 СВ 1 6000 м мгла {туман} ясно +25.9 +24.3 91 +36 +36 очень
душно
1009.8 1009.4 +25.9
18 19.09 Ю 2 6000 м мгла {туман} ясно +32.4 +27.9 77 +53 +71 опасность
перегрева
1011.9 1011.6 +25.8 +34.0
21 19.09 ЮЗ 3 6000 м мгла {туман} 3/1 600 м
[Cu med, cong Ci fib]
+33.1 +25.5 64 +48 +58 опасность
перегрева
1009.9 1009.5
00 20.09 З 3 6000 м мгла {туман} 3/0 1500 м
[As op]
+31.0 +25.9 74 +46 +47 опасность
перегрева
1009.0 1008.6 +25.8 +34.0
06 20.09 С 1 6000 м мгла {туман} ясно +28.3 +25.8 86 +42 +42 опасность
перегрева
1011.3 1010.9 +25.8 +34.0
09 20.09 С 1 6000 м мгла {туман} ясно +27.5 +25.5 89 +40 +40 очень
душно
1010.6 1010.2
12 20.09 С 2 6000 м мгла {туман} 3/1 600 м
[St As op]
+27.0 +24.5 86 +38 +38 очень
душно
1010.7 1010.3 +27.0 +34.0
15 20.09 С 2 6000 м мгла {туман} ясно +28.8 +24.2 76 +40 +45 очень
душно
1011.9 1011.5
18 20.09 ЮЗ 2 6000 м мгла {туман} 1/1 300 м
[Cb calv]
+33.3 +25.1 62 +47 +64 опасность
перегрева
1012.4 1012.0 +26.9 +34.6
21 20.09 З 3 6000 м мгла {туман} ясно +32.7 +25.7 67 +48 +60 опасность
перегрева
1009.0 1008.6
00 21.09 З 2 6000 м мгла {туман} 8/8 300 м
[Sc]
+30.8 +27.0 80 +48 +48 опасность
перегрева
1007.9 1007.5 +26.9 +34.6
03 21.09 ЮЗ 3 6000 м мгла {туман} 9/9 300 м
[St]
+30.1 +27.6 87 +49 +49 опасность
перегрева
1009.3 1008.9
06 21.09 Ю 3 6000 м гроза, ливневой дождь 10/10 300 м
[Cb cap]
+28.0 +27.0 94 +44 +44 опасность
перегрева
1010.0 1009.6 29
09 21.09 штиль 0 6000 м в посл. час дождь {гроза} 9/9 600 м
[Sc]
+27.7 +27.1 97 +44 +44 опасность
перегрева
1009.2 1008.8 26
12 21.09 штиль 0 6000 м зарница {дождь} 3/3 300 м
[Cb cap]
+27.4 +26.6 95 +42 +42 опасность
перегрева
1010.2 1009.8 26
15 21.09 СВ 2 6000 м мгла {туман} 9/0 1500 м
[As op]
+28.4 +26.2 88 +43 +45 опасность
перегрева
1011.6 1011.2
18 21.09 ЮВ 3 6000 м мгла {туман} 10/5 600 м
[Sc As op]
+29.2 +25.2 79 +42 +44 опасность
перегрева
1011.9 1011.5 +27.2 +29.5
21 21.09 Ю 3 6000 м мгла {туман} 10/4 600 м
[Sc diur, vesp As op]
+30.4 +25.5 75 +45 +46 опасность
перегрева
1009.8 1009.4
00 22.09 З 1 6000 м мгла {туман} 10/3 300 м
[Sc diur, vesp As op]
+28.9 +24.9 79 +41 +42 опасность
перегрева
1009.0 1008.6 +27.2 +31.5
03 22.09 ЮЗ 1 6000 м мгла {туман} 5/5 600 м
[Sc]
+28.0 +24.8 83 +40 +40 очень
душно
1009.8 1009.4
06 22.09 СВ 1 6000 м мгла {туман} 3/3 600 м
[Sc]
+27.2 +23.4 80 +37 +37 очень
душно
1008.9 1008.5 +27.2 +31.5
09 22.09 С 2 6000 м мгла {туман} 3/3 600 м
[Sc]
+26.8 +23.8 84 +37 +37 очень
душно
1011.5 1011.1
12 22.09 СВ 1 6000 м мгла {туман} 8/8 600 м
[Sc]
+26.6 +23.3 82 +36 +36 очень
душно
1010.7 1010.3 +26.6 +31.5
18 22.09 Ю 2 6000 м мгла {туман} ясно +32.8 +24.3 61 +45 +63 опасность
перегрева
1012.3 1012.0 +26.1 +33.9
21 22.09 ЮЗ 2 7000 м мгла {туман} 9/4 600 м
[Cb cap As op Ci fib]
+31.2 +26.1 74 +47 +52 опасность
перегрева
1009.1 1008.7
00 23.09 штиль 0 7000 м мгла {туман} 9/0 1500 м
[As op]
+29.8 +25.9 80 +45 +45 опасность
перегрева
1009.7 1009.3 +26.1 +34.3
03 23.09 СВ 2 6000 м мгла {туман} 5/1 600 м
[St Ac und]
+28.7 +26.1 86 +43 +43 опасность
перегрева
1010.8 1010.4
06 23.09 С 2 6000 м мгла {туман} 10/0
[As op]
+27.9 +25.5 87 +41 +41 опасность
перегрева
1011.8 1011.4 +34.3
09 23.09 С 1 6000 м мгла {туман} 3/3 600 м
[Sc]
+27.5 +23.0 76 +37 +37 очень
душно
1011.5 1011.1
12 23.09 С 2 6000 м мгла {туман} ясно +26.6 +23.0 81 +36 +36 очень
душно
1009.9 1009.5 +26.6 +34.3
15 23.09 штиль 0 6000 м мгла {туман} ясно +28.8 +24.2 76 +40 +47 очень
душно
1009.8 1009.4
18 23.09 Ю 2 6000 м мгла {туман} ясно +32.1 +25.7 69 +47 +65 опасность
перегрева
1010.5 1010.1 +26.2 +33.3
21 23.09 ЮЗ 3 7000 м мгла {туман} 3/1 600 м
[Cu med, cong Ci fib]
+32.0 +26.5 73 +49 +59 опасность
перегрева
1007.6 1007.2
00 24.09 ЮЗ 3 7000 м мгла {туман} 5/4 300 м
[Cb cap Ci fib]
+31.3 +25.9 73 +47 +47 опасность
перегрева
1008.5 1008.1 +26.2 +33.5
03 24.09 Ю 2 6000 м мгла {туман} 8/8 300 м
[St]
+29.6 +26.1 82 +45 +45 опасность
перегрева
1011.2 1010.8
06 24.09 С 2 6000 м зарница {гроза, дождь} 10/4 300 м
[Cb cap As op]
+26.9 +25.4 92 +39 +39 очень
душно
1011.9 1011.5 4
09 24.09 СВ 1 6000 м мгла {туман} 5/5 600 м
[Sc]
+26.6 +24.7 89 +38 +38 очень
душно
1011.7 1011.3
12 24.09 С 1 6000 м мгла {туман} ясно +26.2 +23.2 84 +35 +35 очень
душно
1010.4 1010.0 +26.2 +33.5
15 24.09 С 2 6000 м мгла {туман} ясно +27.7 +23.4 77 +37 +42 очень
душно
1010.4 1010.0
18 24.09 З 2 6000 м мгла {туман} 1/1 600 м
[Cu hum]
+31.9 +24.0 63 +44 +60 опасность
перегрева
1010.8 1010.4 +25.8 +32.7
21 24.09 ЮЗ 2 7000 м мгла {туман} 4/4 600 м
[Cb cap]
+32.8 +25.9 67 +48 +57 опасность
перегрева
1008.1 1007.7
00 25.09 ЮЗ 1 7000 м мгла {туман} 6/4 300 м
[Cb cap Ac und]
+31.3 +25.5 71 +46 +46 опасность
перегрева
1009.4 1009.0 +25.8 +34.0
03 25.09 Ю 1 6000 м гроза, ливневой дождь 10/4 300 м
[Cb cap As op]
+25.4 +24.3 94 +35 +35 очень
душно
1012.7 1012.3 44
06 25.09 С 2 6000 м в посл. час дождь {гроза, ливн. осадки} 9/9 300 м
[St]
+26.1 +25.0 94 +37 +37 очень
душно
1013.0 1012.6 46

 

Местоположение метеостанции Manzanillo (Мексика): широта 19.05 долгота -104.30 высота над уровнем моря 3 м.

В архиве по умолчанию представлена погода в Manzanillo за последнюю неделю. Архивные данные за месяц целиком и за предыдущие месяцы, начиная с января 2011 года, Вы можете получить, выбрав интересующий диапазон дат из раскрывающегося списка и нажав кнопку "Ввод!".


*Определитесь, кто Вы:
робот инопланетянин человек

Внимание! Время в таблицах - всемирное. Для получения местного времени необходимо прибавить поправку, которая в Manzanillo равна -6 ч.

Смотрите также архив погоды в соседних городах и на ближайших метеорологических станциях:

Погода в Colima (Мексика) (88 км)
Погода в Ciudad Guzman (Мексика) (120 км)
Погода в Guadalajara (Мексика) (208 км)
Погода в Zamora (Мексика) (234 км)
Погода в Tepic (Мексика) (280 км)
Погода в Morelia (Мексика) (343 км)
Погода в Colotlan (Мексика) (356 км)
Погода в Lagos De Moreno (Мексика) (357 км)
Погода в Aguascalientes (Мексика) (377 км)
Погода в Huejucar (Мексика) (383 км)

Пояснения к столбцам:

Ветер - указаны скорость ветра в м/с - средняя за 10 мин, порывы в срок и между сроками (в фигурных скобках) и направление, откуда дует ветер: С - северный, СВ - северо-восточный, В - восточный, ЮВ - юго-восточный, Ю - южный, ЮЗ - юго-западный, З - западный, СЗ - северо-западный.
Видимость - горизонтальная дальность видимости в метрах или километрах. При видимости от 1 до 10 км при отсутствии осадков обычно наблюдается дымка, при ухудшении видимости до 1 км и менее - туман. В сухую погоду видимость может ухудшаться дымом, пылью или мглою.
Явления - указаны атмосферные явления, наблюдавшиеся в срок или в последний час перед сроком; фигурными скобками обозначены явления, наблюдавшиеся между сроками (за 1-3 часа до срока); квадратными скобками обозначены град или гололедные отложения с указанием их диаметра в мм.
Облачность - указаны через наклонную черту общая и нижняя облачность в баллах и высота нижней границы облаков в метрах; квадратными скобками обозначены формы облаков: Ci - перистые, Cs - перисто-слоистые, Cc - перисто-кучевые, Ac - высококучевые, As - высокослоистые, Sc - слоисто-кучевые, Ns - слоисто-дождевые, Cu - кучевые, Cb - кучево-дождевые. Подробнее классификацию облаков см. в Атласе облаков (PDF).
T - Температура воздуха - температура, измеренная на высоте 2 м над землей.
Td - Температура точки росы - температура, при понижении до которой содержащийся в воздухе водяной пар достигнет насыщения.
f - Относительная влажность воздуха - влажноcть воздуха, измеренная на высоте 2 м над землей.
Te - Эффективная температура - температура, которую ощущает одетый по сезону человек в тени. Характеристика душности погоды. При расчете учитывается влияние влажности воздуха и скорости ветра на теплоощущения человека.
Tes - Эффективная температура на солнце - температура, которую ощущает человек, с поправкой на солнечный нагрев. Характеристика знойности погоды. Зависит от высоты солнца над горизонтом, облачности и скорости ветра. Ночью, в пасмурную погоду, а также при ветре 12 м/с и более поправка равна нулю.
P - Атмосферное давление - приведенное к уровню моря атмосферное давление.
Po - Атмосферное давление - измеренное на уровне метеостанции атмосферное давление.
Tmin - Минимальная температура - минимум температуры воздуха на высоте 2 м над землей.
Tmax - Максимальная температура - максимум температуры воздуха на высоте 2 м над землей.
R - Количество осадков - Количество выпавших осадков за период времени, мм. При наведении курсора мыши на число - период времени, за который выпало указанное количество осадков.
R24 - Количество осадков - Количество выпавших осадков за 24 часа, мм.
S - Снежный покров - Высота снежного покрова, см. При наведении курсора мыши на число - состояние снежного покрова и степень покрытия местности в баллах.